This demonstration page uses our WeatherBlox Daily Observations layout. Learn more.

39.92423, -83.80882

Hourly Observations for April 14, 2017

Temp ( °F °C ) Dew Point ( °F °C ) Humidity (%) Winds ( mph kmh ) Pressure ( in mb ) Visibility ( mi km ) Precip ( " mm )
12:56 am 00:56 Cloudy 55 12.8 42 5.6 62 62 E 9 15 30.26 1025 10 16.0934 0 0.0254
1:56 am 01:56 Partly Cloudy 52 11.1 42 5.6 69 69 ENE 9 15 30.26 1025 10 16.0934 0 0
2:56 am 02:56 Cloudy 53 11.7 42 5.6 66 66 NE 9 15 30.25 1024 10 16.0934 0 0
3:56 am 03:56 Cloudy 52 11.1 42 5.6 69 69 ESE 9 15 30.23 1024 10 16.0934 0 0
4:56 am 04:56 Mostly Cloudy 52 11.1 42 5.6 69 69 E 8 13 30.24 1024 10 16.0934 0 0
5:56 am 05:56 Mostly Cloudy 52 11.1 41 5 66 66 E 8 13 30.23 1024 10 16.0934 0 0
6:56 am 06:56 Mostly Clear 51 10.6 42 5.6 71 71 ENE 8 13 30.26 1025 10 16.0934 0 0
7:56 am 07:56 Mostly Cloudy 52 11.1 42 5.6 69 69 ENE 6 9 30.28 1025 10 16.0934 0 0
8:56 am 08:56 Cloudy 54 12.2 42 5.6 64 64 E 6 9 30.29 1026 10 16.0934 0 0
9:56 am 09:56 Partly Cloudy with Light Rain 56 13.3 43 6.1 62 62 ENE 8 13 30.29 1026 10 16.0934 0 0.0254
10:56 am 10:56 Mostly Cloudy 60 15.6 44 6.7 56 56 SSE 8 13 30.29 1026 10 16.0934 0 0.0254
11:56 am 11:56 Cloudy 65 18.3 44 6.7 47 47 SSE 6 9 30.27 1025 10 16.0934 0 0
12:56 pm 12:56 Cloudy 65 18.3 51 10.6 61 61 ENE 8 13 30.27 1025 10 16.0934 0 0
1:56 pm 13:56 Mostly Cloudy 71 21.7 52 11.1 51 51 E 8 13 30.24 1024 8 12.87472 0 0
2:56 pm 14:56 Mostly Sunny 73 22.8 51 10.6 46 46 Calm 30.23 1024 10 16.0934 0 0
3:56 pm 15:56 Sunny 75 23.9 51 10.6 43 43 Calm 30.21 1023 10 16.0934 0 0
4:56 pm 16:56 Sunny 75 23.9 53 11.7 46 46 E 8 13 30.2 1023 10 16.0934 0 0
5:56 pm 17:56 Sunny 74 23.3 53 11.7 48 48 ESE 9 15 30.19 1022 10 16.0934 0 0
6:56 pm 18:56 Sunny 72 22.2 54 12.2 53 53 ESE 7 11 30.19 1022 10 16.0934 0 0
7:56 pm 19:56 Sunny 67 19.4 55 12.8 66 66 SE 8 13 30.18 1022 10 16.0934 0 0
8:56 pm 20:56 Clear 64 17.8 54 12.2 70 70 ESE 7 11 30.19 1022 10 16.0934 0 0
9:56 pm 21:56 Clear 63 17.2 54 12.2 73 73 ESE 8 13 30.2 1023 10 16.0934 0 0
10:56 pm 22:56 Clear 61 16.1 54 12.2 78 78 ESE 8 13 30.19 1023 10 16.0934 0 0
11:56 pm 23:56 Clear 60 15.6 52 11.1 75 75 SE 7 11 30.19 1022 10 16.0934 0 0

Powered by AerisWeather